Weather in Novinka

Russia / Saint-Petersburg and Leningrad Oblast     59°11′07″N   30°22′19″E
temp.,
°C
wind,
m/s
gust,
m/s
humid.,
%
clouds,
%
prec.,
mm/h
press.,
hPa
HPBL,
m
13 april, tue
tue1300:00+9sse31272100 0.0 1020341
03:00+7sse31077100 0.0 1020288
06:00+6sse398669 0.0 1019223
09:00+10s357029 0.0 1019324
12:00+12sw3562100 0.0 1019568
15:00+14sw2456100 0.0 10191032
18:00+13nnw216294 0.0 1018549
21:00+6nnw4777100 0.0 1020334
14 april, wed
wed1400:00+4nnw4776100 0.0 1019373
03:00+3nnw4984100 0.1 1019415
06:00+1n31082100 2.3 1019509
09:00+2n2787100 3.9 1020402
12:00+4n2565100 0.1 1020638
15:00+7nne2450100 0.1 1020984
18:00+7nne2558100 0.0 1021541
21:00+4n267699 0.0 1023165
15 april, thu
thu1500:00+3n2584100 0.0 1023149
03:00+2nne3982100 0.0 1024313
06:00+1nne41181100 0.0 1025387
09:00+4nne4117397 0.0 1026601
12:00+6ne5857100 0.0 1026898
15:00+7ne685397 0.0 10261013
18:00+6nne596294 0.0 1027787
21:00+3nne4126598 0.0 1028462
16 april, fri
fri1600:00+1nne412775 0.0 1028332
03:000ne311813 0.0 1029280
06:000ne311824 0.0 1029297
09:00+5ne410605 0.0 1030618
12:00+9ne574221 0.0 10301082
15:00+11ne573739 0.0 10301348
18:00+9nne5849100 0.0 1030973
21:00+4ne4126597 0.0 1032364
17 april, sat
sat1700:00+3ne3137664 0.0 1033351
03:00+1ne3108563 0.0 1034243
06:000ne28935 0.0 1035172
09:00+6ene37685 0.0 1036432
12:00+10ene46505 0.0 10361230
15:00+12ene45405 0.0 10351510
18:00+11ene35445 0.0 10341464
21:00+5nne26710 0.0 1035119